Theta_e
291 291 292 293 291 291 289 288 292 286 288 284 285 287 282 279 284 287 287 288 286 284 281 285 284 284 283 283 282 280 278 277 277 276 276 275 276 276 276 278 278 279 279 279
289 289 291 289 288 288 288 287 288 286 286 283 284 284 285 286 287 290 290 288 287 286 286 285 285 285 284 283 282 280 278 277 276 276 276 275 276 276 277 278 279 278 278 278
286 286 289 286 287 288 287 287 286 286 284 284 284 285 285 284 286 290 289 286 285 285 284 285 284 285 284 284 282 280 278 277 276 277 276 275 276 276 277 278 278 278 278 277
281 281 282 285 286 286 286 287 286 286 285 284 284 284 284 284 287 288 286 286 285 284 284 286 284 283 285 284 282 280 278 277 276 277 276 275 276 276 277 278 278 278 278 277
279 278 286 285 285 284 284 284 286 285 284 284 283 282 283 286 287 286 285 284 284 285 285 285 286 284 283 283 282 279 278 277 277 277 276 275 275 276 278 278 278 278 278 278
276 277 284 282 284 284 283 283 284 284 283 283 283 282 283 283 284 283 284 284 285 285 286 285 286 285 281 282 280 279 278 277 277 277 276 276 275 277 278 278 278 278 278 278
277 274 279 283 282 281 279 279 283 283 283 282 282 282 282 282 283 283 283 284 284 284 285 286 286 285 280 280 279 281 279 278 277 276 276 276 276 277 277 277 278 278 278 278
275 273 278 283 279 283 281 282 282 283 283 283 283 282 282 283 283 282 282 282 283 283 283 285 285 284 282 279 281 281 279 278 277 276 276 276 276 277 277 277 278 278 277 277
278 280 279 278 281 279 277 278 280 280 282 283 282 282 282 282 281 281 282 282 282 282 283 283 284 284 281 280 281 279 278 277 277 276 275 276 275 276 276 277 277 278 277 277
278 278 278 277 277 276 278 278 279 279 281 283 282 280 280 280 281 281 281 282 282 281 281 282 284 283 282 280 281 279 278 277 276 275 275 276 275 275 276 277 277 278 277 277
277 277 278 279 278 276 279 277 276 278 280 282 282 278 277 280 281 281 281 282 282 282 282 282 282 282 282 280 279 277 277 277 276 275 276 275 275 275 275 277 278 278 277 277
283 280 280 279 279 273 270 273 276 277 277 277 278 278 278 279 280 280 280 282 281 280 280 281 281 281 281 279 278 277 276 276 276 275 275 274 274 275 275 276 277 277 277 277
285 279 278 278 268 271 269 274 274 276 275 275 275 277 277 278 278 280 279 278 277 277 277 278 279 279 279 279 277 278 276 276 276 275 274 274 274 274 274 274 275 275 276 275
278 276 271 266 271 270 270 272 274 274 274 274 275 275 276 276 277 278 278 275 274 275 276 276 276 277 278 278 277 277 277 277 275 275 274 274 274 274 273 273 273 273 273 273
272 269 268 267 266 267 272 271 271 272 273 274 274 274 274 275 275 277 275 274 273 274 274 274 275 276 276 276 277 277 277 276 276 274 274 274 274 274 273 273 273 273 273 273
270 265 265 263 267 268 270 270 271 272 272 272 273 273 274 274 275 276 274 272 272 272 272 273 274 275 276 277 277 276 276 276 275 274 275 274 274 273 273 272 272 272 273 273
270 269 270 271 271 272 271 272 272 272 272 271 272 272 274 274 274 273 273 272 271 271 272 272 273 274 274 275 275 275 275 276 275 274 274 274 273 273 272 272 272 271 271 273
269 270 271 271 272 271 271 271 272 271 271 270 271 272 273 273 272 272 272 271 271 271 271 271 272 272 273 274 274 274 274 275 275 274 273 273 273 272 272 272 271 271 270 270
271 271 271 271 271 270 270 270 271 270 270 270 270 271 272 272 272 272 272 271 271 272 272 272 274 273 273 273 273 273 273 274 274 274 273 274 273 272 272 271 271 270 270 270
270 270 270 270 270 270 269 269 269 269 270 269 270 270 271 272 272 273 272 272 272 272 272 272 272 273 273 274 273 272 273 274 274 274 273 273 272 272 271 271 270 269 269 270
269 268 269 269 269 269 268 268 268 269 269 269 269 270 270 271 272 273 273 273 274 273 273 273 273 273 273 273 272 272 273 273 273 273 273 272 272 271 271 270 269 269 270 270
267 267 267 268 268 267 268 268 268 268 269 269 269 269 269 270 271 271 273 273 273 274 273 273 273 273 273 272 271 272 272 272 273 273 272 272 271 270 270 269 269 270 270 270
267 267 267 267 267 267 267 268 268 268 268 268 268 268 268 269 270 270 270 273 275 274 273 273 274 275 273 271 271 271 272 272 272 272 271 271 270 270 269 269 269 270 270 270
267 267 267 267 267 267 266 267 268 268 268 268 268 268 268 268 269 269 270 271 273 273 275 275 274 273 271 271 271 271 271 270 270 270 270 269 269 268 269 269 269 270 270 270
266 267 267 266 266 266 266 266 267 267 267 268 268 267 267 267 267 268 268 269 270 270 270 271 271 270 270 270 270 270 269 269 269 269 268 268 268 269 269 269 269 270 271 271
266 266 267 266 266 266 266 266 267 266 267 267 267 267 266 266 267 267 267 267 268 268 268 268 268 268 268 268 268 268 268 268 268 267 268 268 268 268 269 270 270 271 271 272
266 268 266 266 266 265 265 266 265 265 265 265 266 266 266 265 266 266 266 266 266 266 267 267 267 267 266 266 267 267 267 268 268 268 267 268 268 269 269 270 271 271 272 272
Wind_Speed
5 5 5 6 8 3 3 3 3 1 3 5 11 15 8 6 7 7 6 5 4 4 5 10 13 16 18 20 19 19 17 15 12 8 8 9 10 12 13 15 18 19 21 22
2 5 2 8 12 10 7 2 4 4 0 3 7 8 8 10 7 8 4 7 5 5 7 11 14 16 18 21 21 21 20 17 11 9 8 8 9 11 13 16 18 20 22 22
3 5 3 6 9 9 8 5 2 2 3 5 12 13 14 15 12 4 4 5 6 5 9 16 17 15 16 19 19 22 21 17 13 10 9 8 9 12 15 17 19 21 21 21
2 4 3 6 5 7 9 1 3 1 4 6 8 10 16 11 8 6 5 5 7 11 13 15 15 13 12 14 18 22 22 18 14 10 8 8 9 12 14 16 18 20 22 23
3 1 1 5 7 7 3 5 4 6 11 11 11 8 6 6 5 10 10 13 17 22 20 17 15 14 12 14 17 20 22 19 15 11 8 7 9 12 12 16 18 20 22 24
3 3 3 5 5 7 4 4 5 8 8 11 10 9 7 10 13 15 23 23 21 24 19 17 17 14 14 17 19 22 23 20 14 11 9 7 9 9 10 15 19 22 24 25
3 1 5 5 6 6 4 5 11 10 11 11 7 7 15 17 16 23 24 24 24 25 21 21 19 14 17 19 22 22 19 16 14 12 9 7 7 7 9 15 20 22 25 27
1 3 4 4 4 2 5 9 12 12 13 13 12 13 13 16 14 18 20 23 23 21 20 25 20 16 20 22 21 20 17 16 14 11 9 8 7 6 9 16 20 23 26 23
6 4 4 3 7 6 4 7 9 13 16 14 11 11 12 13 14 15 21 22 23 20 19 23 19 16 19 24 18 17 18 17 14 10 8 8 10 9 11 14 18 22 22 18
4 5 6 7 5 3 2 7 12 15 18 15 11 8 11 12 10 12 21 21 21 18 16 18 17 15 19 20 18 17 20 18 14 10 8 8 7 8 8 11 16 19 21 17
5 8 7 6 3 4 10 9 13 15 16 13 9 7 9 12 10 16 21 23 19 15 14 17 15 14 14 14 16 18 20 17 13 9 8 7 6 6 6 8 12 15 20 20
4 3 3 7 6 6 5 8 12 12 14 14 13 13 10 11 16 17 21 18 17 16 14 16 14 14 13 12 16 19 18 15 11 9 8 6 4 3 2 5 7 9 15 16
3 3 6 12 4 5 5 11 13 12 15 13 17 18 20 11 17 22 20 13 14 16 17 16 15 14 12 11 18 17 18 14 11 10 8 6 4 1 4 6 5 10 13 14
3 7 5 3 6 14 15 19 21 19 16 16 18 20 18 18 21 20 12 14 16 15 13 11 10 10 9 13 17 17 15 11 12 10 8 7 5 2 2 5 9 12 14 16
3 1 6 9 10 9 16 15 10 10 11 15 20 18 18 17 17 19 16 17 17 13 11 8 5 5 8 15 17 14 13 12 12 10 8 8 6 4 3 4 8 11 12 18
6 5 5 4 8 8 7 9 10 12 12 18 18 20 22 22 21 17 15 15 12 11 13 8 4 3 7 10 11 12 13 11 10 10 10 11 9 5 4 4 7 11 14 13
5 6 6 7 9 9 10 11 11 12 17 17 20 24 23 18 16 14 14 14 11 11 9 6 2 3 4 6 9 12 13 9 10 11 12 12 11 8 5 5 7 9 11 13
5 7 8 7 9 11 11 15 16 18 17 21 22 22 19 16 12 15 16 15 13 8 7 5 2 2 4 6 9 11 11 8 11 11 12 11 11 10 6 4 6 8 10 11
6 7 9 10 10 11 13 14 16 19 20 20 19 18 18 16 15 15 16 13 11 8 9 7 4 5 6 6 7 8 7 7 10 12 11 9 11 10 8 6 4 5 7 10
6 8 9 10 12 12 12 14 17 17 19 19 19 17 17 18 18 15 12 9 7 6 7 5 6 6 5 6 4 5 7 10 11 12 10 11 10 9 8 7 5 4 4 6
6 9 9 10 11 15 15 16 17 16 18 18 17 17 17 18 19 15 10 7 9 5 4 3 5 5 6 4 4 6 7 9 10 12 11 11 9 8 6 4 4 5 5 5
7 9 9 11 12 14 16 16 17 16 17 16 17 18 19 18 18 17 12 10 12 7 4 1 2 4 6 5 6 6 7 8 9 9 11 11 9 7 5 3 3 4 4 4
8 9 9 11 14 14 14 15 18 16 15 15 15 16 16 16 14 15 10 22 14 5 5 3 5 1 8 7 7 7 8 9 10 10 10 9 7 6 4 4 4 3 1 2
8 8 10 12 12 13 13 18 18 17 14 14 14 14 15 16 16 19 19 18 21 15 17 20 15 12 8 6 6 6 7 8 8 8 8 7 7 6 6 5 3 1 2 4
7 8 11 12 12 10 14 16 16 18 17 16 14 15 15 13 10 16 16 15 14 13 12 12 9 7 4 3 4 5 6 6 6 6 6 7 7 6 4 3 1 2 4 6
9 9 8 10 10 13 15 14 12 14 14 14 14 14 16 15 13 14 13 11 11 9 8 7 7 5 1 2 3 4 6 7 7 7 7 6 5 4 3 2 1 3 6 8
8 7 7 11 11 11 15 14 13 14 18 16 10 15 15 15 14 13 12 12 11 10 8 7 5 5 2 3 4 6 6 6 5 5 5 5 4 4 2 2 3 6 8 10
Wind_Direction
345 346 4 40 46 28 223 202 218 235 79 340 337 336 316 285 316 333 330 332 318 301 292 285 267 256 241 235 228 222 226 234 244 257 273 287 295 302 304 305 309 310 309 306
322 349 95 67 25 14 16 43 89 49 181 222 296 306 325 324 316 307 350 334 323 315 320 323 309 276 250 234 224 220 224 232 235 241 267 285 295 305 303 309 314 316 314 312
314 350 138 36 351 0 345 326 139 84 252 305 326 333 331 314 314 294 280 284 311 300 309 321 316 304 257 238 224 219 223 227 228 237 270 290 300 305 305 315 321 324 321 321
262 12 57 176 33 327 321 197 75 64 339 319 306 307 302 297 277 271 291 307 306 297 297 309 312 304 277 244 223 220 223 226 227 235 264 287 298 299 309 319 326 329 326 328
82 106 129 31 347 332 5 276 98 356 338 329 322 306 275 32 355 308 286 288 288 299 287 290 296 293 262 232 220 220 226 227 227 233 250 272 288 301 318 327 334 337 335 335
23 100 204 211 266 287 308 274 17 351 329 320 330 320 300 323 314 306 298 289 283 293 283 278 287 286 250 229 217 220 228 230 230 227 239 255 280 297 326 339 340 342 340 344
345 286 298 237 289 311 71 254 320 323 316 307 287 269 291 301 295 299 298 290 284 283 273 277 283 274 252 237 224 230 232 228 223 220 231 241 271 281 323 340 343 348 345 347
82 42 338 201 2 67 233 288 289 286 290 277 272 287 292 294 299 302 298 297 285 278 273 280 278 262 254 242 243 240 226 218 213 216 228 234 251 273 319 336 344 346 344 338
171 222 239 263 219 239 227 260 284 292 289 271 272 280 302 298 293 299 298 296 288 278 273 278 269 252 247 250 244 238 217 212 210 213 226 238 248 272 311 336 343 341 340 333
51 278 242 269 287 274 300 275 306 304 296 280 270 275 298 299 289 307 306 296 286 277 268 268 270 261 255 255 245 227 213 208 203 205 220 237 253 273 292 332 337 343 348 347
260 285 291 280 281 290 319 317 310 323 319 285 281 301 290 307 302 308 299 299 286 279 268 272 283 269 258 251 236 213 208 201 192 196 208 234 251 270 290 331 331 340 353 356
236 250 264 291 305 323 317 311 319 317 328 323 312 303 297 298 304 298 296 308 310 308 297 290 286 273 260 243 221 202 195 190 184 194 200 217 234 284 310 340 347 355 356 360
304 355 275 282 297 297 291 311 309 325 315 313 312 311 302 314 306 305 311 317 320 315 312 302 288 272 260 228 201 194 192 179 187 187 187 197 202 241 360 14 16 15 10 14
93 0 334 353 289 310 307 310 308 303 302 304 310 314 319 312 308 309 309 322 320 314 305 299 290 269 262 200 192 192 181 179 192 191 181 183 185 159 71 24 11 20 23 19
353 237 240 285 305 310 317 320 325 321 317 325 324 318 317 312 313 315 324 330 328 325 327 322 307 247 187 179 180 183 181 178 183 184 175 173 170 142 92 54 36 29 27 22
316 301 316 326 305 306 323 324 327 325 332 326 326 326 321 313 308 319 332 337 337 330 335 332 320 218 176 178 187 184 172 173 172 175 173 165 157 140 98 58 45 39 35 20
337 331 323 323 328 329 329 325 325 327 327 327 325 324 324 339 331 333 337 346 343 339 341 347 312 219 201 196 189 176 167 168 167 171 172 164 152 144 113 67 40 37 36 33
246 275 294 310 317 332 328 329 331 331 331 326 325 328 336 337 333 332 335 341 352 354 4 10 38 134 154 164 167 160 156 169 164 170 165 158 148 142 129 91 47 22 20 41
332 319 322 319 327 327 325 323 329 327 328 331 332 333 331 331 332 334 342 345 358 15 20 22 82 103 110 116 145 150 163 176 168 170 167 160 148 144 135 119 80 34 18 24
336 335 327 328 338 340 329 327 327 327 332 335 336 339 341 339 341 344 352 359 360 358 18 36 83 78 79 102 130 158 173 174 168 168 166 156 152 145 136 126 112 85 58 36
329 329 320 333 333 337 343 343 340 329 336 341 341 340 337 337 347 352 353 347 353 351 36 97 99 92 88 103 113 138 153 162 169 169 164 153 152 150 144 134 117 120 108 92
333 325 324 338 335 328 343 347 354 345 341 342 346 349 348 346 353 351 354 357 342 3 11 334 192 137 99 107 120 129 143 158 162 161 159 160 160 157 154 154 142 126 110 97
327 327 335 344 336 330 340 354 354 351 342 346 347 349 349 345 355 0 344 345 319 343 337 288 224 157 104 110 119 127 131 140 145 151 156 161 165 167 160 148 141 124 99 43
333 346 349 343 346 352 346 342 344 348 354 356 360 3 1 353 351 2 6 10 33 49 51 63 79 84 95 109 124 134 139 142 146 151 152 165 170 169 164 155 150 95 18 358
351 354 353 352 349 335 331 331 334 345 347 346 354 358 0 359 347 344 352 358 7 18 38 44 53 65 90 121 149 153 154 156 163 168 167 160 158 159 158 149 115 39 18 355
352 337 341 348 343 342 336 332 333 333 336 333 334 345 346 347 346 339 345 347 347 355 3 18 25 21 29 182 181 169 158 148 165 154 160 160 159 156 144 119 77 27 0 351
360 351 341 351 355 339 343 343 339 332 331 323 321 343 342 343 343 338 339 341 340 336 332 332 344 1 338 245 202 185 178 171 166 169 160 151 145 141 114 78 50 6 354 350